Weather History for Hail, Saudi Arabia

Change the Weather History Date:

Thursday, February 14, 2013

  Actual Average Record
Temperature  
Mean Temperature 56 °F -  
Max Temperature 69 °F 69 °F 78 °F (2009)
Min Temperature 42 °F 44 °F 32 °F (1998)
Degree Days  
Heating Degree Days 10    
Growing Degree Days 6 (Base 50)    
Moisture  
Dew Point 34 °F    
Average Humidity 43    
Maximum Humidity 70    
Minimum Humidity 17    
Precipitation  
Precipitation 0.00 in - - ()
Sea Level Pressure  
Sea Level Pressure 30.13 in    
Wind  
Wind Speed 7 mph ()    
Max Wind Speed 18 mph    
Max Gust Speed -    
Visibility 6.0 miles    
Events      
Averages and records for this station are not official NWS values.
T = Trace of Precipitation, MM = Missing Value Source: Averaged Metar Reports

Daily Weather History Graph

Daily Weather History Graph

Search for Another Location

Airport:

Trip Planner

Search our weather history database for the weather conditions in past years. The results will help you decide how hot, cold, wet, or windy it might be!

Date:

Astronomy

Feb. 14, 2013 Rise Set
Actual Time 6:51 AM AST 6:04 PM AST
Civil Twilight 6:27 AM AST 6:28 PM AST
Nautical Twilight 5:59 AM AST 6:55 PM AST
Astronomical Twilight 5:32 AM AST 7:22 PM AST
Moon 9:09 AM AST (2/14) 10:14 PM AST (2/14)
Length of Visible Light 12h 00m
Length of Day
11h 13m
Waxing Crescent, 18% of the Moon is Illuminated
Feb 14
Waxing Crescent
Feb 17
First Quarter
Feb 25
Full
Mar 5
Last Quarter
Mar 11
New

Hourly Weather History & Observations

Time (AST) Temp. Windchill Dew Point Humidity Pressure Visibility Wind Dir Wind Speed Gust Speed Precip Events Conditions
12:00 AM 52 °F - 36 °F 42%  in 6 mi NNE 9.2 mph - -  
12:00 AM 51.8 °F - 35.6 °F 54% 30.18 in - NNE 9.2 mph - N/A   Clear
1:00 AM 50.0 °F - 35.6 °F 58% 30.18 in - NNE 11.5 mph - N/A   Clear
2:00 AM 50.0 °F - 35.6 °F 58% 30.15 in - NNE 4.6 mph - N/A   Clear
3:00 AM 48 °F - 34 °F 46%  in 6 mi East 2.3 mph - -  
3:00 AM 48.2 °F - 33.8 °F 58% 30.15 in - East 2.3 mph - N/A   Clear
4:00 AM 46.4 °F - 33.8 °F 62% 30.15 in - NNE 2.3 mph - N/A   Clear
5:00 AM 44.6 °F - 33.8 °F 66% 30.15 in - SE 2.3 mph - N/A   Clear
6:00 AM 44 °F - 34 °F 57%  in 6 mi East 2.3 mph - -  
6:00 AM 44.6 °F - 33.8 °F 66% 30.15 in - East 2.3 mph - N/A   Clear
7:00 AM 42.8 °F 40.1 °F 33.8 °F 70% 30.18 in - ESE 4.6 mph - N/A   Clear
8:00 AM 48.2 °F - 35.6 °F 62% 30.21 in - SSE 4.6 mph - N/A   Clear
9:00 AM 50 °F - 37 °F 51%  in 6 mi SSW 9.2 mph - -   Clear
9:00 AM 50.0 °F - 37.4 °F 62% 30.18 in - SSW 9.2 mph - N/A   Clear
10:00 AM 53.6 °F - 35.6 °F 51% 30.18 in - ESE 4.6 mph - N/A   Clear
11:00 AM 57.2 °F - 33.8 °F 41% 30.18 in - East 6.9 mph - N/A   Clear
12:00 PM 62 °F - 34 °F 23%  in 6 mi East 6.9 mph - -   Clear
12:00 PM 60.8 °F - 33.8 °F 36% 30.15 in - East 6.9 mph - N/A   Clear
1:00 PM 64.4 °F - 30.2 °F 28% 30.09 in - East 11.5 mph - N/A   Clear
2:00 PM 68.0 °F - 30.2 °F 24% 30.09 in - ENE 9.2 mph - N/A   Clear
3:00 PM 69 °F - 34 °F 17%  in 6 mi East 13.8 mph - -   Clear
3:00 PM 68.0 °F - 33.8 °F 28% 30.06 in - East 13.8 mph - N/A   Clear
4:00 PM 69.8 °F - 33.8 °F 27% 30.06 in - East 16.1 mph - N/A   Clear
5:00 PM 68.0 °F - 33.8 °F 28% 30.06 in - ENE 18.4 mph - N/A   Clear
6:00 PM 68 °F - 34 °F 17%  in 6 mi NNE 6.9 mph - -   Clear
6:00 PM 68.0 °F - 33.8 °F 28% 30.06 in - NNE 6.9 mph - N/A   Clear
7:00 PM 64.4 °F - 35.6 °F 34% 30.09 in - ENE 9.2 mph - N/A   Clear
8:00 PM 62.6 °F - 35.6 °F 37% 30.09 in - ENE 6.9 mph - N/A   Clear
9:00 PM 60 °F - 32 °F 23%  in 6 mi NNE 6.9 mph - -  
9:00 PM 60.8 °F - 32.0 °F 34% 30.12 in - NNE 6.9 mph - N/A   Clear
10:00 PM 59.0 °F - 32.0 °F 36% 30.12 in - ENE 6.9 mph - N/A   Clear
11:00 PM 55.4 °F - 32.0 °F 41% 30.12 in - East 6.9 mph - N/A   Clear